Flag for Canada Weather past 2 weeks in Edmundston, New Brunswick, Canada

Now
57 °F

Cool.


Feels Like: 57 °F
Forecast: 56 / 79 °F
Wind: 3 mph from North

Location: St Leonard

Current Time: Jul 6, 2015 at 2:28:40 AM

Latest Report: Jul 6, 2015 at 1:00 AM


Visibility: N/A

Pressure: 30.07 "Hg

Humidity: 88%

Dew point: 53 °F

Location of EdmundstonLocation

Historic Weather in Edmundston — Graph

°F

Edmundston temperature yesterday

Maximum temperature yesterday: 74 °F (at 5:00 PM)
Minimum temperature yesterday: 50 °F (at 6:00 AM)
Average temperature yesterday: 62 °F

Past Weeks' High & Low Weather Summary

 TemperatureHumidityPressure
High76 °F (Jul 4, 4:00 PM)100% (Jun 22, 2:00 AM)30.20 "Hg (Jun 22, 2:00 AM)
Low42 °F (Jun 26, 6:00 AM)30% (Jun 27, 5:00 PM)29.61 "Hg (Jul 2, 6:00 AM)
Average58 °F77%29.89 "Hg
* Reported Jun 21 1:00 AM — Jul 6 1:00 AM, Edmundston, Weather by CustomWeather, © 2015

Note: Actual official high and low records may vary slightly from our data, if they occured in-between our weather recording intervals... More about our weather records

Advertising

Edmundston weather history for previous 24 hours

 ConditionsComfort  
Time TempWeatherWind HumidityBarometerVisibility
1:00 AM
Mon, Jul 6
57 °FCool.3 mph88%30.07 "HgN/A
12:00 AM59 °FCool.2 mph89%30.06 "HgN/A
11:00 PM
Sun, Jul 5
62 °FCool.3 mph85%30.05 "HgN/A
10:00 PM62 °FMild.1 mph82%30.03 "HgN/A
9:00 PM69 °FMild.6 mph68%30.00 "HgN/A
8:00 PM71 °FMild.8 mph61%29.99 "HgN/A
7:00 PM74 °FMild.13 mph54%29.98 "HgN/A
6:00 PM74 °FMild.9 mph54%29.96 "HgN/A
5:00 PM74 °FMild.14 mph57%29.97 "HgN/A
4:00 PM73 °FMild.9 mph60%29.96 "HgN/A
3:00 PM70 °FMild.8 mph64%29.96 "HgN/A
2:00 PM70 °FMild.10 mph63%29.96 "HgN/A
1:00 PM69 °FMild.8 mph65%29.97 "HgN/A
12:00 PM64 °FMild.8 mph72%29.98 "HgN/A
11:00 AM63 °FMild.7 mph77%29.97 "HgN/A
10:00 AM62 °FCool.6 mph72%29.96 "HgN/A
9:00 AM61 °FCool.2 mph77%29.95 "HgN/A
8:00 AM55 °FCool.2 mph94%29.94 "HgN/A
7:00 AM51 °FCool.2 mph94%29.93 "HgN/A
6:00 AM50 °FCool.No wind94%29.92 "HgN/A
5:00 AM50 °FCool.2 mph94%29.91 "HgN/A
4:00 AM51 °FCool.3 mph94%29.91 "HgN/A
3:00 AM51 °FCool.1 mph93%29.91 "HgN/A
2:00 AM52 °FCool.3 mph91%29.92 "HgN/A
Weather by CustomWeather, © 2015

See weather overviewHow to use our weather pages